This demonstration page uses our WeatherBlox Daily Observations layout. Learn more.

Left ArrowRight Arrow

41.12389, -100.76542

Hourly Observations for March 2, 2018

Temp ( °F °C ) Dew Point ( °F °C ) Humidity (%) Winds ( mph kmh ) Pressure ( in mb ) Visibility ( mi km ) Precip ( " mm )
12:53 am 00:53 Clear 37 2.8 18 -7.8 46 46 ESE 13 20 30.15 1021 10 16 0.00 0.00
1:53 am 01:53 Clear 36 2.2 17 -8.3 46 46 ESE 12 19 30.12 1020 10 16 0.00 0.00
2:53 am 02:53 Clear 38 3.3 14 -10 37 37 SE 15 24 30.10 1019 10 16 0.00 0.00
3:53 am 03:53 Clear 37 2.8 14 -10 39 39 SE 16 26 30.07 1018 10 16 0.00 0.00
4:53 am 04:53 Clear 35 1.7 14 -10 42 42 SE 14 22 30.07 1018 10 16 0.00 0.00
5:53 am 05:53 Clear 33 0.6 15 -9.4 47 47 SE 12 19 30.08 1019 10 16 0.00 0.00
6:53 am 06:53 Clear 32 0 15 -9.4 50 50 SE 7 11 30.11 1020 10 16 0.00 0.00
7:53 am 07:53 Sunny 33 0.6 15 -9.4 47 47 SSE 6 9 30.13 1020 10 16 0.00 0.00
8:53 am 08:53 Sunny 37 2.8 17 -8.3 44 44 SE 8 13 30.11 1020 10 16 0.00 0.00
9:53 am 09:53 Sunny 41 5 19 -7.2 41 41 SE 12 19 30.05 1018 10 16 0.00 0.00
10:53 am 10:53 Sunny 44 6.7 21 -6.1 40 40 SSW 10 17 30.05 1018 10 16 0.00 0.00
11:53 am 11:53 Sunny 46 7.8 24 -4.4 42 42 SSW 8 13 30.05 1018 10 16 0.00 0.00
12:53 pm 12:53 Sunny 49 9.4 25 -3.9 39 39 S 7 11 30.02 1017 10 16 0.00 0.00
1:53 pm 13:53 Sunny 55 12.8 26 -3.3 33 33 SE 9 15 29.96 1015 10 16 0.00 0.00
2:53 pm 14:53 Sunny 57 13.9 28 -2.2 33 33 SSE 10 17 29.94 1014 10 16 0.00 0.00
3:53 pm 15:53 Sunny 60 15.6 29 -1.7 31 31 SE 12 19 29.92 1013 10 16 0.00 0.00
4:53 pm 16:53 Sunny 60 15.6 28 -2.2 30 30 SE 12 19 29.91 1013 10 16 0.00 0.00
5:53 pm 17:53 Sunny 55 12.8 31 -0.6 40 40 E 9 15 29.92 1013 10 16 0.00 0.00
6:53 pm 18:53 Clear 43 6.1 29 -1.7 58 58 E 9 15 29.93 1014 10 16 0.00 0.00
7:53 pm 19:53 Clear 45 7.2 30 -1.1 56 56 ESE 12 19 29.91 1013 10 16 0.00 0.00
8:53 pm 20:53 Clear 39 3.9 29 -1.7 67 67 ESE 13 20 29.91 1013 10 16 0.00 0.00
9:53 pm 21:53 Clear 37 2.8 29 -1.7 73 73 ESE 12 19 29.89 1012 10 16 0.00 0.00
10:53 pm 22:53 Clear 38 3.3 29 -1.7 70 70 E 14 22 29.88 1012 10 16 0.00 0.00
11:53 pm 23:53 Clear 37 2.8 29 -1.7 73 73 E 13 20 29.87 1011 10 16 0.00 0.00

Powered by AerisWeather